Location: Unspecified
(45.6669°N, 0.0000°E)
Time: 09:00:42
(UTC+00:00)

ISS - Pass Details

Date: 21 May 2019
Orbit: 407 x 418 km, 51.6° (Epoch: 24 June)

Event Time Altitude Azimuth Distance (km) Brightness Sun altitude
Rises 21:21:28 0° 263° (W) 2,350 0.5 -15.3°
Reaches altitude 10° 21:23:37 10° 271° (W) 1,491 -0.4 -15.5°
Maximum altitude 21:26:49 40° 343° (NNW) 629 -2.3 -15.8°
Drops below altitude 10° 21:30:01 10° 55° (NE) 1,502 -1.0 -16.2°
Enters shadow 21:34:13 -6° 67° (ENE) 3,179 0.6 -16.6°
